This demonstration page uses our WeatherBlox Daily Observations layout. Learn more.

Left ArrowRight Arrow

39.29038, -76.61219

Hourly Observations for November 28, 2020

Temp ( °F °C ) Dew Point ( °F °C ) Humidity (%) Winds ( mph kmh ) Pressure ( in mb ) Visibility ( mi km ) Precip ( " mm )
12:54 am 00:54 Mostly Cloudy 47 8.3 43 6.1 86 86 W 6 9 30.00 1016 10 16 0.00 0.00
1:54 am 01:54 Mostly Cloudy 50 10 42 5.6 74 74 SW 3 6 29.99 1016 10 16 0.00 0.00
2:54 am 02:54 Mostly Cloudy 48 8.9 41 5 77 77 Calm 30.00 1016 10 16 0.00 0.00
3:54 am 03:54 Cloudy 48 8.9 41 5 77 77 Calm 29.99 1016 10 16 0.00 0.00
4:54 am 04:54 Mostly Cloudy 47 8.3 41 5 80 80 Calm 29.99 1016 10 16 0.00 0.00
5:54 am 05:54 Mostly Cloudy 48 8.9 41 5 77 77 VRB 5 7 30.00 1016 10 16 0.00 0.00
6:54 am 06:54 Partly Cloudy 46 7.8 40 4.4 79 79 Calm 30.01 1016 10 16 0.00 0.00
7:54 am 07:54 Partly Cloudy 47 8.3 42 5.6 83 83 WSW 3 6 30.03 1017 10 16 0.00 0.00
8:54 am 08:54 Mostly Sunny 53 11.7 41 5 64 64 W 5 7 30.04 1017 10 16 0.00 0.00
9:54 am 09:54 Mostly Sunny 56 13.3 41 5 57 57 W 5 7 30.05 1018 10 16 0.00 0.00
10:54 am 10:54 Partly Cloudy 57 13.9 36 2.2 45 45 W 17 28 30.04 1017 10 16 0.00 0.00
11:54 am 11:54 Partly Cloudy 59 15 37 2.8 44 44 W 21 33 30.04 1017 10 16 0.00 0.00
12:54 pm 12:54 Partly Cloudy 58 14.4 34 1.1 41 41 NW 17 28 30.03 1017 10 16 0.00 0.00
1:54 pm 13:54 Mostly Sunny 59 15 34 1.1 39 39 NW 14 22 30.02 1017 10 16 0.00 0.00
2:54 pm 14:54 Sunny 58 14.4 33 0.6 39 39 W 10 17 30.03 1017 10 16 0.00 0.00
3:54 pm 15:54 Sunny 57 13.9 31 -0.6 37 37 WNW 14 22 30.04 1017 10 16 0.00 0.00
4:54 pm 16:54 Clear 54 12.2 30 -1.1 40 40 WNW 9 15 30.06 1018 10 16 0.00 0.00
5:54 pm 17:54 Clear 51 10.6 28 -2.2 41 41 W 5 7 30.08 1019 10 16 0.00 0.00
6:54 pm 18:54 Clear 49 9.4 29 -1.7 46 46 Calm 30.09 1019 10 16 0.00 0.00
7:54 pm 19:54 Clear 45 7.2 30 -1.1 56 56 Calm 30.11 1020 10 16 0.00 0.00
8:54 pm 20:54 Clear 44 6.7 29 -1.7 55 55 WNW 5 7 30.11 1020 10 16 0.00 0.00
9:54 pm 21:54 Clear 42 5.6 29 -1.7 60 60 WNW 3 6 30.14 1021 10 16 0.00 0.00
10:54 pm 22:54 Clear 41 5 28 -2.2 60 60 Calm 30.15 1021 10 16 0.00 0.00
11:54 pm 23:54 Clear 38 3.3 28 -2.2 68 68 Calm 30.16 1021 10 16 0.00 0.00

Powered by AerisWeather